Location: Unspecified
(0.0000°N, 0.0000°E)
Time: 18:24:33
(UTC+00:00)

STARLINK 1043 - Pass Details

Date: 22 January 2020
Orbit: 548 x 551 km, 53.0° (Epoch: 17 January)

Event Time Altitude Azimuth Distance (km) Brightness Sun altitude
Rises 05:25:10 0° 231° (SW) 2,711 6.9 -10.9°
Reaches altitude 10° 05:27:35 10° 241° (WSW) 1,816 5.9 -10.3°
Maximum altitude 05:31:16 31° 304° (NW) 964 4.3 -9.4°
Drops below altitude 10° 05:34:56 10° 7° (N) 1,808 6.1 -8.6°
Sets 05:37:20 0° 18° (NNE) 2,697 7.1 -8.0°
